This is the latest recevied weather packets stored in our database for station/object W5TUX. If no packets are shown the sender has not sent any weather packets the latest 1 day(s).
| Time | Temp. | Humidity | Pressure | Rain* | Wind** | Luminosity | Snow |
|---|---|---|---|---|---|---|---|
| 1778014732 | 31.67° C | 55% | 1009.1 hPa | 0 mm | 0.45 m/s, 201° | 209 W/m² | - |
| 1778014431 | 32.22° C | 53% | 1009.1 hPa | 0 mm | 1.79 m/s, 240° | 147 W/m² | - |
| 1778014127 | 31.67° C | 56% | 1009.3 hPa | 0 mm | 1.34 m/s, 238° | 169 W/m² | - |
| 1778013825 | 31.67° C | 52% | 1009.4 hPa | 0 mm | 1.34 m/s, 302° | 248 W/m² | - |
| 1778013522 | 31.67° C | 52% | 1009.5 hPa | 0 mm | 0.89 m/s, 235° | 188 W/m² | - |
| 1778013218 | 31.67° C | 56% | 1009.5 hPa | 0 mm | 0.89 m/s, 228° | 104 W/m² | - |
| 1778012915 | 31.11° C | 55% | 1009.6 hPa | 0 mm | 0.89 m/s, 257° | 194 W/m² | - |
| 1778012611 | 31.11° C | 58% | 1009.6 hPa | 0 mm | 1.79 m/s, 333° | 192 W/m² | - |
| 1778012308 | 30.56° C | 59% | 1009.6 hPa | 0 mm | 0.89 m/s, 259° | 190 W/m² | - |
| 1778012005 | 30.56° C | 60% | 1009.4 hPa | 0 mm | 0.89 m/s, 201° | 177 W/m² | - |
| 1778011704 | 30.56° C | 59% | 1009.4 hPa | 0 mm | 1.34 m/s, 270° | 179 W/m² | - |
| 1778011400 | 30.56° C | 58% | 1009.6 hPa | 0 mm | 1.34 m/s, 187° | 191 W/m² | - |
| 1778011095 | 31.11° C | 59% | 1009.7 hPa | 0 mm | 0.89 m/s, 205° | 308 W/m² | - |
| 1778010793 | 30.56° C | 58% | 1009.7 hPa | 0 mm | 0.89 m/s, 224° | 290 W/m² | - |
| 1778010490 | 30.56° C | 59% | 1009.7 hPa | 0 mm | 0.89 m/s, 249° | 247 W/m² | - |
| 1778010187 | 30° C | 60% | 1009.8 hPa | 0 mm | 1.34 m/s, 165° | 578 W/m² | - |
| 1778009882 | 30° C | 60% | 1009.9 hPa | 0 mm | 1.34 m/s, 243° | 476 W/m² | - |
| 1778009580 | 30° C | 61% | 1009.7 hPa | 0 mm | 1.79 m/s, 232° | 398 W/m² | - |
| 1778009278 | 30° C | 61% | 1009.7 hPa | 0 mm | 3.58 m/s, 204° | 736 W/m² | - |
| 1778008976 | 30° C | 62% | 1009.7 hPa | 0 mm | 2.24 m/s, 260° | 662 W/m² | - |
| 1778008674 | 30° C | 61% | 1009.8 hPa | 0 mm | 1.34 m/s, 273° | 614 W/m² | - |
| 1778008372 | 28.89° C | 62% | 1009.7 hPa | 0 mm | 2.24 m/s, 262° | 555 W/m² | - |
| 1778008068 | 28.89° C | 65% | 1009.7 hPa | 0 mm | 1.34 m/s, 188° | 430 W/m² | - |
| 1778007763 | 28.89° C | 64% | 1009.8 hPa | 0 mm | 1.79 m/s, 197° | 428 W/m² | - |
| 1778007460 | 28.89° C | 64% | 1010 hPa | 0 mm | 1.79 m/s, 234° | 350 W/m² | - |
* Rain latest hour (hover to see other rain measurements)
** Current wind speed in m/s (hover to see current wind gust speed)